Location: Central Falls
(41.8900°N, 71.3929°W)
Time: 11:26:09
(UTC+00:00)

A-11 Canister half - Pass Details

Date: 13 December 2023
Orbit: 1512 x 1687 km, 47.2° (Epoch: 20 February)

Event Time Altitude Azimuth Distance (km) Brightness Sun altitude
Rises 08:57:50 0° 297° (WNW) 4,821 - -33.8°
Reaches altitude 10° 09:00:57 10° 294° (WNW) 3,856 - -33.2°
Exits shadow 09:09:38 58° 240° (WSW) 1,884 9.1 -31.6°
Maximum altitude 09:10:35 60° 218° (SW) 1,856 9.1 -31.4°
Drops below altitude 10° 09:20:29 10° 141° (SE) 3,940 11.6 -29.6°
Sets 09:23:42 0° 138° (SE) 4,930 12.3 -29.0°
